| time (UTC) | temp F | wind direction | speed MPH | gust MPH | rain 1hr in | rain 24hr in | rain mn in | humidity % | barometer mb |
| 20260503221156 | 55 | 314 | 4.0 | 4.0 | 0.00 | 0.00 | 0.00 | 40 | 1009.7 |
| 20260503220653 | 54 | 353 | 2.0 | 2.0 | 0.00 | 0.00 | 0.00 | 40 | 1009.5 |
| 20260503220150 | 54 | 280 | 4.0 | 6.0 | 0.00 | 0.00 | 0.00 | 39 | 1009.8 |
| 20260503215647 | 54 | 271 | 4.0 | 6.0 | 0.00 | 0.00 | 0.00 | 42 | 1009.6 |
| 20260503215143 | 54 | 283 | 4.0 | 6.0 | 0.00 | 0.00 | 0.00 | 39 | 1009.9 |
| 20260503214642 | 54 | 311 | 8.0 | 9.0 | 0.00 | 0.00 | 0.00 | 41 | 1009.8 |
| 20260503214138 | 55 | 323 | 6.0 | 7.0 | 0.00 | 0.00 | 0.00 | 39 | 1009.8 |
| 20260503213637 | 54 | 331 | 5.0 | 8.0 | 0.00 | 0.00 | 0.00 | 41 | 1009.9 |
| 20260503213133 | 54 | 312 | 10.0 | 11.0 | 0.00 | 0.00 | 0.00 | 40 | 1009.7 |
| 20260503212631 | 53 | 327 | 8.0 | 9.0 | 0.00 | 0.00 | 0.00 | 43 | 1009.9 |
| 20260503212128 | 52 | 291 | 5.0 | 7.0 | 0.00 | 0.00 | 0.00 | 42 | 1009.6 |
| 20260503211626 | 53 | 305 | 5.0 | 8.0 | 0.00 | 0.00 | 0.00 | 42 | 1009.8 |
| 20260503211121 | 53 | 282 | 7.0 | 9.0 | 0.00 | 0.00 | 0.00 | 43 | 1009.9 |
| 20260503210618 | 53 | 335 | 4.0 | 4.0 | 0.00 | 0.00 | 0.00 | 44 | 1009.8 |
| 20260503210115 | 51 | 333 | 9.0 | 11.0 | 0.00 | 0.00 | 0.00 | 44 | 1010.0 |
| 20260503205610 | 51 | 319 | 14.0 | 18.0 | 0.00 | 0.00 | 0.00 | 44 | 1009.8 |
| 20260503205107 | 51 | 351 | 9.0 | 10.0 | 0.00 | 0.00 | 0.00 | 44 | 1010.0 |
| 20260503204604 | 51 | 220 | 6.0 | 7.0 | 0.00 | 0.00 | 0.00 | 44 | 1009.7 |
| 20260503204101 | 51 | 271 | 7.0 | 9.0 | 0.00 | 0.00 | 0.00 | 43 | 1010.0 |
| 20260503203558 | 52 | 269 | 3.0 | 4.0 | 0.00 | 0.00 | 0.00 | 42 | 1009.8 |
| 20260503203055 | 52 | 232 | 5.0 | 7.0 | 0.00 | 0.00 | 0.00 | 41 | 1009.7 |
| 20260503202553 | 52 | 280 | 6.0 | 8.0 | 0.00 | 0.00 | 0.00 | 42 | 1009.8 |
| 20260503202051 | 53 | 241 | 5.0 | 7.0 | 0.00 | 0.00 | 0.00 | 40 | 1009.9 |
| 20260503201549 | 53 | 298 | 7.0 | 11.0 | 0.00 | 0.00 | 0.00 | 40 | 1009.9 |
| 20260503201046 | 53 | 321 | 8.0 | 11.0 | 0.00 | 0.00 | 0.00 | 41 | 1010.0 |
| 20260503200541 | 53 | 345 | 8.0 | 9.0 | 0.00 | 0.00 | 0.00 | 41 | 1009.9 |
| 20260503200038 | 52 | 328 | 4.0 | 4.0 | 0.00 | 0.00 | 0.00 | 42 | 1010.2 |
| 20260503195536 | 52 | 290 | 6.0 | 7.0 | 0.00 | 0.00 | 0.00 | 40 | 1010.2 |
| 20260503195032 | 52 | 304 | 7.0 | 9.0 | 0.00 | 0.00 | 0.00 | 39 | 1010.1 |
| 20260503194530 | 52 | 332 | 15.0 | 17.0 | 0.00 | 0.00 | 0.00 | 39 | 1010.1 |
| 20260503194029 | 52 | 306 | 6.0 | 9.0 | 0.00 | 0.00 | 0.00 | 40 | 1010.0 |
| 20260503193527 | 52 | 270 | 6.0 | 7.0 | 0.00 | 0.00 | 0.00 | 41 | 1010.1 |
| 20260503193021 | 52 | 37 | 3.0 | 3.0 | 0.00 | 0.00 | 0.00 | 39 | 1010.2 |
| 20260503192518 | 51 | 308 | 2.0 | 3.0 | 0.00 | 0.00 | 0.00 | 40 | 1010.3 |
| 20260503192014 | 51 | 4 | 6.0 | 7.0 | 0.00 | 0.00 | 0.00 | 39 | 1010.2 |
| 20260503191511 | 51 | 245 | 6.0 | 7.0 | 0.00 | 0.00 | 0.00 | 38 | 1010.4 |
| 20260503191008 | 52 | 313 | 5.0 | 7.0 | 0.00 | 0.00 | 0.00 | 39 | 1010.3 |
| 20260503190505 | 52 | 327 | 7.0 | 9.0 | 0.00 | 0.00 | 0.00 | 37 | 1010.1 |
| 20260503190002 | 51 | 309 | 3.0 | 4.0 | 0.00 | 0.00 | 0.00 | 45 | 1010.4 |
| 20260503185458 | 51 | 305 | 5.0 | 7.0 | 0.00 | 0.00 | 0.00 | 39 | 1010.4 |
| 20260503184957 | 51 | 292 | 8.0 | 9.0 | 0.00 | 0.00 | 0.00 | 40 | 1010.4 |
| 20260503184454 | 51 | 272 | 5.0 | 7.0 | 0.00 | 0.00 | 0.00 | 39 | 1010.3 |
| 20260503183951 | 51 | 224 | 4.0 | 4.0 | 0.00 | 0.00 | 0.00 | 40 | 1010.6 |
| 20260503183447 | 51 | 317 | 5.0 | 7.0 | 0.00 | 0.00 | 0.00 | 38 | 1010.6 |
| 20260503182944 | 52 | 306 | 5.0 | 6.0 | 0.00 | 0.00 | 0.00 | 39 | 1010.6 |
| 20260503182443 | 51 | 234 | 7.0 | 13.0 | 0.00 | 0.00 | 0.00 | 37 | 1010.7 |
| 20260503181940 | 51 | 331 | 5.0 | 7.0 | 0.00 | 0.00 | 0.00 | 42 | 1010.7 |
| 20260503181437 | 51 | 338 | 5.0 | 6.0 | 0.00 | 0.00 | 0.00 | 37 | 1010.8 |
| 20260503180933 | 50 | 305 | 8.0 | 10.0 | 0.00 | 0.00 | 0.00 | 38 | 1011.0 |
| 20260503180431 | 50 | 334 | 6.0 | 8.0 | 0.00 | 0.00 | 0.00 | 40 | 1010.8 |
| 20260503175928 | 51 | 272 | 12.0 | 16.0 | 0.00 | 0.00 | 0.00 | 36 | 1011.0 |
| 20260503175426 | 51 | 309 | 7.0 | 9.0 | 0.00 | 0.00 | 0.00 | 37 | 1010.9 |
| 20260503174922 | 51 | 244 | 8.0 | 11.0 | 0.00 | 0.00 | 0.00 | 36 | 1010.9 |
| 20260503174420 | 50 | 354 | 3.0 | 3.0 | 0.00 | 0.00 | 0.00 | 45 | 1011.1 |
| 20260503173920 | 50 | 313 | 6.0 | 8.0 | 0.00 | 0.00 | 0.00 | 43 | 1011.2 |
| 20260503173417 | 49 | 345 | 7.0 | 8.0 | 0.00 | 0.00 | 0.00 | 42 | 1011.4 |
| 20260503172913 | 49 | 2 | 6.0 | 6.0 | 0.00 | 0.00 | 0.00 | 43 | 1011.3 |
| 20260503172411 | 49 | 349 | 9.0 | 11.0 | 0.00 | 0.00 | 0.00 | 42 | 1011.5 |
| 20260503171907 | 51 | 9 | 8.0 | 10.0 | 0.00 | 0.00 | 0.00 | 39 | 1011.6 |
| 20260503171404 | 49 | 303 | 2.0 | 3.0 | 0.00 | 0.00 | 0.00 | 49 | 1011.5 |
| 20260503170901 | 48 | 344 | 11.0 | 13.0 | 0.00 | 0.00 | 0.00 | 41 | 1011.8 |
| 20260503170357 | 48 | 12 | 3.0 | 3.0 | 0.00 | 0.00 | 0.00 | 44 | 1011.9 |
| 20260503150750 | 45 | 302 | 3.0 | 3.0 | 0.00 | 0.00 | 0.00 | 48 | 1012.4 |
| 20260503150246 | 45 | 336 | 6.0 | 7.0 | 0.00 | 0.00 | 0.00 | 42 | 1012.4 |
| 20260503140210 | 43 | 334 | 9.0 | 11.0 | 0.00 | 0.00 | 0.00 | 45 | 1012.5 |
| 20260503131140 | 42 | 353 | 5.0 | 7.0 | 0.00 | 0.00 | 0.00 | 50 | 1012.4 |
| 20260503130637 | 42 | 292 | 7.0 | 8.0 | 0.00 | 0.00 | 0.00 | 52 | 1012.6 |
| 20260503130135 | 41 | 352 | 5.0 | 6.0 | 0.00 | 0.00 | 0.00 | 50 | 1012.7 |
| 20260503110527 | 36 | 305 | 4.0 | 6.0 | 0.00 | 0.00 | 0.00 | 79 | 1012.5 |
| 20260503090414 | 36 | 359 | 2.0 | 3.0 | 0.00 | 0.00 | 0.00 | 78 | 1011.6 |
| 20260503081341 | 36 | 23 | 4.0 | 4.0 | 0.00 | 0.00 | 0.00 | 77 | 1011.5 |
| 20260503080837 | 36 | 342 | 4.0 | 4.0 | 0.00 | 0.00 | 0.00 | 77 | 1011.8 |
| 20260503080334 | 36 | 23 | 2.0 | 2.0 | 0.00 | 0.00 | 0.00 | 78 | 1011.8 |
| 20260503072811 | 37 | 358 | 2.0 | 3.0 | 0.00 | 0.00 | 0.00 | 76 | 1011.8 |
| 20260503072308 | 37 | 25 | 3.0 | 3.0 | 0.00 | 0.00 | 0.00 | 76 | 1011.5 |
| 20260503071804 | 37 | 346 | 4.0 | 4.0 | 0.00 | 0.00 | 0.00 | 76 | 1011.6 |
| 20260503071301 | 37 | 29 | 3.0 | 3.0 | 0.00 | 0.00 | 0.00 | 75 | 1011.8 |
| 20260503070757 | 37 | 307 | 4.0 | 4.0 | 0.00 | 0.00 | 0.00 | 76 | 1011.3 |
| 20260503070255 | 37 | 358 | 2.0 | 2.0 | 0.00 | 0.00 | 0.00 | 76 | 1011.5 |
| 20260503060226 | 37 | 353 | 2.0 | 2.0 | 0.00 | 0.00 | 0.00 | 76 | 1012.1 |
| 20260503054713 | 37 | 327 | 3.0 | 4.0 | 0.00 | 0.00 | 0.00 | 75 | 1012.2 |
| 20260503054211 | 37 | 336 | 4.0 | 4.0 | 0.00 | 0.00 | 0.00 | 76 | 1012.2 |
| 20260503053709 | 37 | 359 | 2.0 | 3.0 | 0.00 | 0.00 | 0.00 | 77 | 1012.3 |
| 20260503053207 | 37 | 16 | 2.0 | 3.0 | 0.00 | 0.00 | 0.00 | 77 | 1012.3 |
| 20260503052703 | 37 | 346 | 1.0 | 2.0 | 0.00 | 0.00 | 0.00 | 77 | 1012.4 |
| 20260503052159 | 37 | 40 | 2.0 | 2.0 | 0.00 | 0.00 | 0.00 | 77 | 1012.4 |
| 20260503051654 | 37 | 41 | 2.0 | 2.0 | 0.00 | 0.00 | 0.00 | 77 | 1012.5 |
| 20260503051153 | 37 | 12 | 3.0 | 3.0 | 0.00 | 0.00 | 0.00 | 77 | 1012.5 |
| 20260503050649 | 37 | 17 | 4.0 | 4.0 | 0.00 | 0.00 | 0.00 | 77 | 1012.7 |
| 20260503050145 | 37 | 322 | 2.0 | 3.0 | 0.00 | 0.00 | 0.00 | 77 | 1012.6 |
| 20260503045643 | 37 | 39 | 2.0 | 2.0 | 0.00 | 0.00 | 0.00 | 77 | 1012.5 |
| 20260503045140 | 37 | 3 | 2.0 | 3.0 | 0.00 | 0.00 | 0.00 | 77 | 1012.7 |
| 20260503044637 | 37 | 66 | 3.0 | 3.0 | 0.00 | 0.00 | 0.00 | 77 | 1012.7 |
| 20260503044134 | 37 | 21 | 3.0 | 3.0 | 0.00 | 0.00 | 0.00 | 77 | 1012.7 |
| 20260503043631 | 37 | 27 | 3.0 | 3.0 | 0.00 | 0.00 | 0.00 | 77 | 1012.8 |
| 20260503043128 | 37 | 11 | 2.0 | 3.0 | 0.00 | 0.00 | 0.00 | 77 | 1012.5 |
| 20260503042624 | 37 | 13 | 3.0 | 4.0 | 0.00 | 0.00 | 0.00 | 77 | 1012.8 |
| 20260503042120 | 37 | 21 | 2.0 | 2.0 | 0.00 | 0.00 | 0.00 | 77 | 1012.8 |
| 20260503041617 | 37 | 342 | 3.0 | 3.0 | 0.00 | 0.00 | 0.00 | 77 | 1012.8 |
| 20260503041115 | 37 | 1 | 2.0 | 2.0 | 0.00 | 0.00 | 0.00 | 77 | 1012.9 |
| 20260503040612 | 37 | 344 | 2.0 | 2.0 | 0.00 | 0.00 | 0.00 | 76 | 1012.8 |
| 20260503040109 | 37 | 11 | 4.0 | 4.0 | 0.00 | 0.00 | 0.00 | 76 | 1012.8 |
| 20260503035606 | 37 | 11 | 3.0 | 3.0 | 0.00 | 0.00 | 0.00 | 76 | 1012.7 |
| 20260503035104 | 37 | 5 | 4.0 | 4.0 | 0.00 | 0.00 | 0.00 | 75 | 1012.9 |
| 20260503034600 | 37 | 11 | 4.0 | 4.0 | 0.00 | 0.00 | 0.00 | 75 | 1012.7 |
| 20260503034058 | 37 | 354 | 4.0 | 6.0 | 0.00 | 0.00 | 0.00 | 74 | 1012.8 |
| 20260503033555 | 37 | 343 | 1.0 | 2.0 | 0.00 | 0.00 | 0.00 | 73 | 1013.0 |
| 20260503033053 | 37 | 279 | 5.0 | 7.0 | 0.00 | 0.00 | 0.00 | 73 | 1013.1 |
| 20260503032551 | 37 | 57 | 0.0 | 0.0 | 0.00 | 0.00 | 0.00 | 73 | 1012.9 |
| 20260503032049 | 37 | 341 | 3.0 | 3.0 | 0.00 | 0.00 | 0.00 | 73 | 1012.8 |
| 20260503031546 | 37 | 344 | 6.0 | 6.0 | 0.00 | 0.00 | 0.00 | 73 | 1013.0 |
| 20260503031043 | 37 | 354 | 1.0 | 2.0 | 0.00 | 0.00 | 0.00 | 74 | 1013.0 |
| 20260503030539 | 37 | 355 | 2.0 | 2.0 | 0.00 | 0.00 | 0.00 | 73 | 1012.9 |
| 20260503030036 | 37 | 25 | 1.0 | 1.0 | 0.00 | 0.00 | 0.00 | 73 | 1012.9 |
| 20260503025533 | 37 | 18 | 2.0 | 2.0 | 0.00 | 0.00 | 0.00 | 73 | 1012.9 |
| 20260503025031 | 37 | 348 | 1.0 | 2.0 | 0.00 | 0.00 | 0.00 | 73 | 1013.0 |
| 20260503024527 | 38 | 3 | 0.0 | 1.0 | 0.00 | 0.00 | 0.00 | 73 | 1013.1 |
| 20260503024024 | 38 | 2 | 3.0 | 3.0 | 0.00 | 0.00 | 0.00 | 73 | 1012.9 |
| 20260503023521 | 38 | 341 | 0.0 | 1.0 | 0.00 | 0.00 | 0.00 | 73 | 1013.0 |
| 20260503023019 | 38 | 353 | 2.0 | 3.0 | 0.00 | 0.00 | 0.00 | 72 | 1013.1 |
| 20260503022514 | 38 | 351 | 1.0 | 1.0 | 0.00 | 0.00 | 0.00 | 72 | 1013.1 |
| 20260503022009 | 38 | 334 | 0.0 | 1.0 | 0.00 | 0.00 | 0.00 | 72 | 1013.2 |
| 20260503021506 | 38 | 301 | 2.0 | 3.0 | 0.00 | 0.00 | 0.00 | 71 | 1013.1 |
| 20260503021003 | 38 | 353 | 2.0 | 2.0 | 0.00 | 0.00 | 0.00 | 71 | 1013.2 |
| 20260503020500 | 38 | 20 | 1.0 | 2.0 | 0.00 | 0.00 | 0.00 | 70 | 1013.0 |
| 20260503015957 | 38 | 324 | 4.0 | 7.0 | 0.00 | 0.00 | 0.00 | 69 | 1013.0 |
| 20260503015454 | 38 | 273 | 4.0 | 4.0 | 0.00 | 0.00 | 0.00 | 70 | 1013.0 |
| 20260503014950 | 38 | 266 | 2.0 | 2.0 | 0.00 | 0.00 | 0.00 | 70 | 1013.2 |
| 20260503014447 | 38 | 56 | 0.0 | 1.0 | 0.00 | 0.00 | 0.00 | 71 | 1013.0 |
| 20260503013945 | 39 | 55 | 0.0 | 0.0 | 0.00 | 0.00 | 0.00 | 69 | 1013.2 |
| 20260503013442 | 39 | 53 | 1.0 | 1.0 | 0.00 | 0.00 | 0.00 | 68 | 1013.1 |
| 20260503012939 | 39 | 54 | 2.0 | 2.0 | 0.00 | 0.00 | 0.00 | 68 | 1013.1 |
| 20260503012437 | 39 | 39 | 2.0 | 2.0 | 0.00 | 0.00 | 0.00 | 68 | 1013.0 |
| 20260503011933 | 39 | 32 | 0.0 | 0.0 | 0.00 | 0.00 | 0.00 | 68 | 1013.0 |
| 20260503011430 | 39 | 10 | 1.0 | 2.0 | 0.00 | 0.00 | 0.00 | 67 | 1013.2 |
| 20260503010927 | 39 | 23 | 2.0 | 3.0 | 0.00 | 0.00 | 0.00 | 67 | 1013.1 |
| 20260503010424 | 39 | 329 | 3.0 | 6.0 | 0.00 | 0.00 | 0.00 | 67 | 1013.0 |
| 20260503005921 | 40 | 15 | 2.0 | 2.0 | 0.00 | 0.00 | 0.00 | 67 | 1013.0 |
| 20260503005418 | 40 | 6 | 2.0 | 3.0 | 0.00 | 0.00 | 0.00 | 66 | 1012.9 |
| 20260503004914 | 40 | 290 | 2.0 | 3.0 | 0.00 | 0.00 | 0.00 | 66 | 1012.8 |
| 20260503004411 | 40 | 5 | 4.0 | 4.0 | 0.00 | 0.00 | 0.00 | 66 | 1012.8 |
| 20260503003909 | 40 | 338 | 2.0 | 2.0 | 0.00 | 0.00 | 0.00 | 67 | 1012.7 |
| 20260503003405 | 41 | 350 | 4.0 | 4.0 | 0.00 | 0.00 | 0.00 | 65 | 1012.6 |
| 20260503002903 | 41 | 33 | 4.0 | 7.0 | 0.00 | 0.00 | 0.00 | 64 | 1012.7 |
| 20260503002400 | 41 | 310 | 6.0 | 8.0 | 0.00 | 0.00 | 0.00 | 62 | 1012.6 |
| 20260503001856 | 41 | 352 | 4.0 | 4.0 | 0.00 | 0.00 | 0.00 | 60 | 1012.8 |
| 20260503001353 | 41 | 270 | 4.0 | 4.0 | 0.00 | 0.00 | 0.00 | 59 | 1012.8 |
| 20260503000850 | 41 | 310 | 5.0 | 6.0 | 0.00 | 0.00 | 0.00 | 59 | 1012.5 |
| 20260503000348 | 41 | 351 | 2.0 | 2.0 | 0.00 | 0.00 | 0.00 | 59 | 1012.6 |
| 20260502235844 | 41 | 333 | 2.0 | 3.0 | 0.00 | 0.00 | 0.00 | 58 | 1012.7 |
| 20260502235341 | 41 | 339 | 2.0 | 2.0 | 0.00 | 0.00 | 0.00 | 58 | 1012.6 |
| 20260502234838 | 42 | 329 | 2.0 | 3.0 | 0.00 | 0.00 | 0.00 | 58 | 1012.6 |
| 20260502234335 | 42 | 9 | 3.0 | 6.0 | 0.00 | 0.00 | 0.00 | 58 | 1012.5 |
| 20260502233832 | 42 | 358 | 3.0 | 4.0 | 0.00 | 0.00 | 0.00 | 56 | 1012.5 |
| 20260502233328 | 42 | 357 | 2.0 | 3.0 | 0.00 | 0.00 | 0.00 | 56 | 1012.4 |
| 20260502232825 | 42 | 351 | 3.0 | 3.0 | 0.00 | 0.00 | 0.00 | 56 | 1012.5 |
| 20260502232321 | 42 | 348 | 4.0 | 4.0 | 0.00 | 0.00 | 0.00 | 54 | 1012.4 |
| 20260502231818 | 42 | 345 | 1.0 | 2.0 | 0.00 | 0.00 | 0.00 | 55 | 1012.4 |
| 20260502231316 | 42 | 351 | 5.0 | 6.0 | 0.00 | 0.00 | 0.00 | 54 | 1012.4 |
| 20260502230814 | 43 | 336 | 4.0 | 4.0 | 0.00 | 0.00 | 0.00 | 55 | 1012.4 |
| 20260502230312 | 43 | 333 | 3.0 | 3.0 | 0.00 | 0.00 | 0.00 | 56 | 1012.3 |
| 20260502225808 | 43 | 345 | 2.0 | 2.0 | 0.00 | 0.00 | 0.00 | 54 | 1012.4 |
| 20260502225305 | 43 | 335 | 5.0 | 7.0 | 0.00 | 0.00 | 0.00 | 53 | 1012.2 |
| 20260502224801 | 43 | 356 | 2.0 | 2.0 | 0.00 | 0.00 | 0.00 | 54 | 1012.1 |
| 20260502224258 | 43 | 325 | 4.0 | 4.0 | 0.00 | 0.00 | 0.00 | 53 | 1012.0 |
| 20260502223755 | 43 | 344 | 3.0 | 3.0 | 0.00 | 0.00 | 0.00 | 53 | 1012.2 |
| 20260502223254 | 43 | 354 | 7.0 | 9.0 | 0.00 | 0.00 | 0.00 | 50 | 1012.1 |
| 20260502222751 | 44 | 323 | 3.0 | 3.0 | 0.00 | 0.00 | 0.00 | 51 | 1012.2 |
| 20260502222248 | 44 | 311 | 6.0 | 7.0 | 0.00 | 0.00 | 0.00 | 51 | 1012.2 |
| 20260502221743 | 44 | 298 | 6.0 | 8.0 | 0.00 | 0.00 | 0.00 | 52 | 1012.0 |